#timestamp,LO_Frequency,Hit 
1504209615.1,286047005.8,N
1504209635.9,286047003.8,N
1504209655.7,286047007.0,N
1504209675.5,286047004.9,N
1504209695.4,286047002.9,N
1504209715.2,286047005.4,N
1504209735.0,286047003.6,N
1504209735.9,286047003.6,N
1504209755.8,286047003.0,N
1504209775.6,286047001.5,N
1504209795.4,286047004.3,N
1504209815.3,286047004.0,N
1504209835.1,286047006.0,N
1504209836.0,286047006.0,P
1504209855.8,286046998.9,N
1504209875.7,286046996.9,N
1504209895.5,286047000.8,N
1504209915.3,286047001.1,N
1504209935.2,286047001.0,N
1504209955.9,286047000.8,N
1504209975.7,286046997.1,N
1504209995.5,286046997.0,N
1504210015.4,286046996.9,N
1504210035.2,286046995.2,N
1504210055.0,286046997.0,N
1504210055.9,286046997.0,N
1504210075.8,286046999.0,N
1504210095.6,286046997.2,N
1504210115.4,286046997.7,N
1504210135.3,286046996.7,N
1504210155.1,286046995.1,N
1504210175.8,286046997.9,N
1504210195.7,286046999.2,N
1504210215.5,286047001.1,N
1504210235.3,286046997.8,N
1504210255.2,286046997.2,N
1504210275.9,286046999.0,N
1504210295.7,286047001.1,N
1504210315.5,286047002.0,N
1504210335.4,286047000.4,N
1504210355.2,286047003.8,N
1504210375.0,286047001.8,N
1504210375.9,286047001.8,N
1504210395.8,286047002.3,N
1504210415.6,286047001.9,N
1504210435.4,286047003.4,N
1504210455.3,286047005.6,N
1504210475.1,286047004.0,N
1504210495.8,286047003.4,N
1504210515.7,286047005.5,N
1504210535.5,286047007.1,N
1504210555.3,286047006.8,N
1504210575.2,286047007.4,N
1504210595.9,286047007.1,N
1504210615.7,286047006.8,N
1504210635.6,286047006.7,N
1504210655.4,286047008.9,N
1504210675.2,286047008.7,N
1504210695.0,286047006.2,N
1504210696.0,286047006.2,N
1504210715.8,286047009.1,N
1504210735.6,286047006.8,N
1504210755.4,286047005.4,N
1504210775.3,286047003.3,N
1504210795.1,286047008.9,N
1504210815.8,286047004.7,N
1504210835.7,286047005.4,N
1504210855.5,286047007.3,N
1504210875.3,286047008.0,P
1504210895.2,286047003.6,N
1504210915.0,286047005.1,N
1504210915.9,286047005.1,P
1504210935.8,286047000.4,N
1504210955.6,286047002.4,N
1504210975.4,286047000.4,N
1504210995.2,286047003.9,N
1504211015.1,286047004.9,N
1504211016.0,286047004.9,N
1504211035.8,286047004.9,N
1504211055.6,286047003.1,N
1504211075.5,286047004.3,N
1504211095.3,286047000.7,N
1504211115.1,286047000.0,N
1504211135.9,286046998.1,N
1504211155.7,286047000.9,N
1504211175.5,286047000.6,N
1504211195.4,286047002.8,N
1504211215.2,286047002.8,N
1504211235.0,286047000.1,N
1504211235.9,286047000.1,N
1504211255.8,286047001.9,N
1504211275.6,286047003.4,N
1504211295.4,286047004.1,N
1504211315.2,286047002.5,N
1504211335.1,286047002.2,N
1504211336.0,286047002.2,N
1504211355.8,286046999.8,N
1504211375.6,286047002.6,N
1504211395.5,286047002.5,N
1504211415.3,286047000.6,N
1504211435.1,286047000.6,N
1504211455.9,286046999.2,N
1504211475.7,286046999.3,N
1504211495.5,286046999.1,N
1504211515.4,286046998.2,N
1504211535.2,286047000.7,N
1504211555.0,286047002.8,N
1504211555.9,286047002.8,N
1504211575.8,286047000.3,N
1504211595.6,286046999.7,N
1504211615.4,286047002.2,N
1504211635.2,286047002.5,N
1504211655.1,286046999.9,N
1504211656.0,286046999.9,N
1504211675.8,286047000.7,N
1504211695.6,286046998.2,N
1504211715.5,286047000.7,N
1504211735.3,286047000.4,N
1504211755.1,286047000.3,N
1504211775.9,286047002.6,N
1504211795.7,286047000.3,N
1504211815.5,286047002.8,N
1504211835.4,286047000.6,N
1504211855.2,286047001.3,N
1504211875.0,286047002.0,N
1504211875.9,286047002.0,N
1504211895.8,286047002.0,N
1504211915.6,286047004.3,P
1504211935.4,286047002.0,N
1504211955.3,286047002.0,N
1504211975.1,286047000.6,N
1504211976.0,286047000.6,N
1504211995.8,286046999.8,N
1504212015.7,286047002.8,N
1504212035.5,286046999.7,N
1504212055.3,286047003.3,N
1504212075.2,286047005.6,P
1504212095.9,286047003.9,N
1504212115.7,286047002.2,N
1504212135.6,286047003.9,N
1504212155.4,286047003.9,N
1504212175.2,286047004.2,P
1504212195.1,286046999.0,P
1504212196.0,286046999.0,N
1504212215.8,286046998.4,N
1504212235.6,286046996.9,N
1504212255.5,286046998.4,N
1504212275.3,286046998.3,N
1504212295.1,286047000.0,N
1504212315.8,286047000.6,N
1504212335.7,286047000.7,N
1504212355.5,286046998.4,N
1504212375.3,286046999.3,N
1504212395.2,286046999.2,N
1504212415.9,286046998.6,N
1504212435.7,286046998.5,N
1504212455.6,286046998.1,N
1504212475.4,286046998.1,N
1504212495.2,286046998.9,N
1504212515.1,286046998.4,N
1504212516.0,286046998.4,N
1504212535.8,286047000.3,N
1504212555.6,286047002.1,N
1504212575.5,286047004.1,N
1504212595.3,286047005.9,P
1504212615.1,286047007.2,N
1504212635.9,286047005.2,N
1504212655.7,286047005.4,N
1504212675.5,286047004.1,N
1504212695.3,286047005.0,N
1504212715.2,286047005.8,N
1504212735.0,286047003.0,N
1504212735.9,286047003.0,N
1504212755.7,286047001.6,N
1504212775.6,286047005.9,N
1504212795.4,286047005.9,N
1504212815.2,286047003.4,N
1504212835.1,286047004.4,N
1504212836.0,286047004.4,N
1504212855.8,286047004.4,N
1504212875.6,286047001.6,N
1504212895.5,286047005.3,N
1504212915.3,286047004.9,N
1504212935.1,286047004.4,N
1504212955.9,286047003.4,N
1504212975.7,286047006.0,P
1504212995.5,286046998.2,N
1504213015.4,286046998.9,N
1504213035.2,286047001.2,N
1504213055.0,286047000.7,N
1504213055.9,286047000.7,N
1504213075.8,286046999.3,N
1504213095.6,286047000.7,N
1504213115.4,286047000.9,N
1504213135.2,286047002.6,N
1504213155.1,286047001.8,N
1504213156.0,286047001.8,N
1504213175.8,286047000.3,N
1504213195.6,286046999.8,N
